Location: Deneb Observatory
(47.2267°N, 100.4953°W)
Time: 20:55:19
(UTC-06:00)

Amateur Radio Satellites - All Passes

Search period start: 28 February 2015 20:25
Search period end: 01 March 2015 20:25
Location: Deneb Observatory, 47.2267°N, 100.4953°W

Satellite Date Start Highest point End Downlink Frequencies (MHz)
Time Altitude Azimuth
AIST 2 28 Feb 20:27:52 20:31:55 40° 315° (NW) 20:36:01 435.215
Oscar 11 28 Feb 20:28:10 20:31:32 23° 65° (ENE) 20:34:59 145.826/435.025
O/OREOS (USA 219) 28 Feb 20:32:41 20:37:05 44° 252° (WSW) 20:41:25 437.305
DELFI C3 28 Feb 20:38:22 20:41:27 22° 66° (ENE) 20:44:38 145.870
BEESAT 2 28 Feb 20:44:51 20:47:44 18° 328° (NNW) 20:50:34 435.950
DX 1 28 Feb 20:48:38 20:51:54 21° 63° (ENE) 20:55:18 434.975-435.025
AAUSAT CUBESAT 2 28 Feb 20:51:25 20:55:32 74° 75° (ENE) 20:59:42 437.432
COMPASS 1 28 Feb 20:52:11 20:56:20 86° 76° (ENE) 21:00:32 437.405
DOVE 4 28 Feb 20:53:53 20:59:05 88° 255° (WSW) 21:04:02 437.250
VELOX 1 28 Feb 20:54:28 20:55:45 11° 57° (ENE) 20:57:15 145.980
PCSat 28 Feb 20:54:35 20:58:42 23° 109° (ESE) 21:02:58 145.827
CUBESAT XI-V 28 Feb 21:05:49 21:08:28 15° 301° (WNW) 21:10:56 437.345
PHONESAT 2.4 28 Feb 21:06:05 21:09:06 25° 170° (S) 21:12:08 2401.200-2431.200
FUNcube-1 28 Feb 21:07:46 21:11:32 29° 68° (ENE) 21:15:17 145.935
ZACube-1 28 Feb 21:08:09 21:11:57 30° 68° (ENE) 21:15:44 437.345
PRISM 28 Feb 21:11:37 21:12:32 10° 302° (WNW) 21:13:14 437.425
CANX-2 28 Feb 21:16:22 21:20:15 35° 264° (W) 21:24:08 2200.000
SEEDS 28 Feb 21:16:30 21:20:30 44° 262° (W) 21:24:32 437.485
VERMONT LUNAR 28 Feb 21:17:55 21:20:55 27° 179° (S) 21:23:55 437.305
CINEMA 3 28 Feb 21:18:43 21:23:32 89° 246° (WSW) 21:28:11 145.822/145.860
UKube-1 28 Feb 21:20:09 21:24:11 39° 69° (ENE) 21:28:16 .
UWE-3 28 Feb 21:21:45 21:26:02 49° 72° (ENE) 21:30:15 435.000/436.395/437.385
HUMSAT D 28 Feb 21:29:10 21:32:40 27° 67° (ENE) 21:36:13 437.325/437.525
BRITE-PL 28 Feb 21:31:09 21:35:52 26° 269° (W) 21:40:21 437.365/2234.400
CUTE 1.7 + AOD 2 28 Feb 21:35:49 21:39:20 25° 267° (W) 21:42:48 437.475
GOMX 1 28 Feb 21:47:31 21:51:55 25° 268° (W) 21:56:06 467.674
50 SAT 28 Feb 21:49:06 21:52:33 29° 68° (ENE) 21:56:03 437.505
GONETS M04 28 Feb 21:54:00 22:01:48 40° 87° (E) 22:09:45
CUBEBUG 2 28 Feb 21:54:24 21:58:56 67° 259° (W) 22:03:19 437.445
STRAND 1 28 Feb 21:57:00 21:58:40 11° 307° (NW) 22:00:05 437.568
RS-15 28 Feb 22:02:17 22:05:11 12° 95° (E) 22:09:06 29.354- 29.394
HO-68 28 Feb 22:02:54 22:08:41 25° 270° (W) 22:14:17 435.675
Oscar 11 28 Feb 22:03:29 22:07:33 39° 263° (W) 22:11:37 145.826/435.025
AIST 2 28 Feb 22:10:07 22:11:43 12° 338° (NNW) 22:13:13 435.215
DELFI C3 28 Feb 22:12:44 22:16:29 37° 263° (W) 22:20:16 145.870
AISAT 28 Feb 22:16:36 22:21:04 65° 73° (ENE) 22:25:34 437.250
DX 1 28 Feb 22:23:39 22:27:54 47° 261° (W) 22:32:11 434.975-435.025
VELOX 1 28 Feb 22:27:09 22:31:39 79° 74° (ENE) 22:36:10 145.980
CUBEBUG 1 28 Feb 22:28:06 22:32:11 37° 69° (ENE) 22:36:20 437.445
AAUSAT CUBESAT 2 28 Feb 22:30:18 22:31:48 11° 274° (W) 22:33:05 437.432
ESTCUBE 1 28 Feb 22:34:42 22:39:02 47° 70° (ENE) 22:43:25 437.505/2401.250
DOVE 4 28 Feb 22:35:17 22:37:33 12° 275° (W) 22:39:33 437.250
POLYITAN 1 28 Feb 22:35:42 22:37:30 13° 87° (E) 22:39:29 437.675
PCSat 28 Feb 22:36:21 22:41:45 63° 308° (NW) 22:47:10 145.827
POPSAT HIP 1 28 Feb 22:37:16 22:39:10 13° 87° (E) 22:41:14 437.405
PHONESAT 2.4 28 Feb 22:43:57 22:47:03 26° 187° (S) 22:50:08 2401.200-2431.200
FUNcube-1 28 Feb 22:43:57 22:47:52 30° 265° (W) 22:51:41 145.935
ZACube-1 28 Feb 22:44:26 22:48:19 30° 265° (W) 22:52:07 437.345
UNISAT 6 28 Feb 22:46:41 22:50:24 28° 95° (E) 22:54:09 437.425
VERMONT LUNAR 28 Feb 22:55:44 22:58:18 19° 196° (SSW) 23:00:49 437.305
UKube-1 28 Feb 22:56:57 23:00:31 23° 267° (W) 23:03:59 .
UWE-3 28 Feb 22:59:40 23:02:53 19° 269° (W) 23:05:57 435.000/436.395/437.385
CINEMA 3 28 Feb 22:59:55 23:01:28 11° 275° (W) 23:02:44 145.822/145.860
NANOSAT C BR1 28 Feb 23:00:15 23:03:33 22° 92° (E) 23:06:55 145.865
HUMSAT D 28 Feb 23:04:36 23:08:23 32° 264° (W) 23:12:09 437.325/437.525
SPROUT 28 Feb 23:09:17 23:12:54 27° 66° (ENE) 23:16:36 437.525
TIGRISAT 28 Feb 23:12:34 23:16:44 50° 99° (E) 23:20:56 435.000
TISAT 1 28 Feb 23:20:38 23:24:25 32° 68° (ENE) 23:28:16 437.305
DANDE 28 Feb 23:21:46 23:24:07 13° 88° (E) 23:26:37 436.750
50 SAT 28 Feb 23:24:11 23:27:35 26° 266° (W) 23:30:57 437.505
ANTELSAT 28 Feb 23:24:53 23:29:11 70° 102° (ESE) 23:33:29 437.575/2403.000
QB50P1 28 Feb 23:31:59 23:36:06 47° 99° (E) 23:40:11 145.935-145.965
QB50P2 28 Feb 23:35:02 23:39:12 51° 100° (E) 23:43:20 145.880/145.840
SWISSCUBE 28 Feb 23:38:12 23:40:00 12° 56° (ENE) 23:42:01 437.505
BEESAT 28 Feb 23:46:45 23:48:59 14° 57° (ENE) 23:51:24 436.000
GONETS M04 28 Feb 23:50:06 23:58:31 52° 288° (WNW) 00:06:58
DUCHIFAT 1 28 Feb 23:52:00 23:56:15 76° 103° (ESE) 00:00:27 145.980
BUGSAT 1 28 Feb 23:53:30 23:57:40 60° 101° (E) 00:01:44 437.445
AISAT 28 Feb 23:55:27 23:58:11 15° 272° (W) 00:00:46 437.250
CUSAT 1 01 Mar 00:00:55 00:06:14 30° 95° (E) 00:10:34 437.405
RS-15 01 Mar 00:04:45 00:15:13 57° 116° (ESE) 00:25:56 29.354- 29.394
CUBEBUG 1 01 Mar 00:04:57 00:08:41 25° 267° (W) 00:12:23 437.445
VELOX 1 01 Mar 00:06:57 00:08:54 12° 274° (W) 00:10:38 145.980
POLYITAN 1 01 Mar 00:09:46 00:14:00 69° 286° (WNW) 00:18:11 437.675
ITUPSAT 1 01 Mar 00:11:14 00:14:46 21° 62° (ENE) 00:18:25 437.325
POPSAT HIP 1 01 Mar 00:11:23 00:15:37 67° 286° (WNW) 00:19:47 437.405
ESTCUBE 1 01 Mar 00:12:45 00:16:13 21° 269° (W) 00:19:35 437.505/2401.250
PCSat 01 Mar 00:22:41 00:26:18 17° 330° (NNW) 00:29:49 145.827
PHONESAT 2.4 01 Mar 00:22:57 00:24:52 14° 203° (SSW) 00:26:43 2401.200-2431.200
UNISAT 6 01 Mar 00:23:25 00:27:14 31° 292° (WNW) 00:31:00 437.425
NANOSAT C BR1 01 Mar 00:35:38 00:39:35 38° 291° (WNW) 00:43:29 145.865
SPROUT 01 Mar 00:44:55 00:48:55 34° 264° (W) 00:52:53 437.525
TIGRISAT 01 Mar 00:50:11 00:53:13 19° 297° (WNW) 00:56:08 435.000
TISAT 1 01 Mar 00:56:32 01:00:16 28° 266° (W) 01:03:58 437.305
DANDE 01 Mar 01:00:18 01:07:15 77° 101° (E) 01:12:26 436.750
ANTELSAT 01 Mar 01:03:08 01:05:32 14° 299° (WNW) 01:07:48 437.575/2403.000
QB50P1 01 Mar 01:08:36 01:11:43 20° 296° (WNW) 01:14:43 145.935-145.965
QB50P2 01 Mar 01:11:49 01:14:47 18° 297° (WNW) 01:17:38 145.880/145.840
SWISSCUBE 01 Mar 01:12:23 01:17:09 79° 74° (ENE) 01:21:59 437.505
BEESAT 3 01 Mar 01:20:57 01:24:03 20° 34° (NE) 01:27:09 437.485
BEESAT 01 Mar 01:21:25 01:26:11 88° 73° (ENE) 01:31:00 436.000
DUCHIFAT 1 01 Mar 01:29:27 01:31:35 13° 300° (WNW) 01:33:32 145.980
BUGSAT 1 01 Mar 01:30:07 01:32:44 16° 298° (WNW) 01:35:13 437.445
AIST 2 01 Mar 01:30:42 01:32:51 14° 26° (NNE) 01:35:05 435.215
CUSAT 1 01 Mar 01:43:12 01:49:06 41° 285° (WNW) 01:53:36 437.405
BEESAT 2 01 Mar 01:44:02 01:47:31 25° 38° (NE) 01:51:00 435.950
ITAMSAT 1 01 Mar 01:46:44 01:49:15 14° 86° (E) 01:52:01 435.822/435.867
ITUPSAT 1 01 Mar 01:47:38 01:52:21 55° 260° (W) 01:57:05 437.325
Oscar 19 01 Mar 01:51:17 01:56:08 41° 97° (E) 02:00:59 437.125/150
YUBILEINY 01 Mar 01:51:47 01:57:18 18° 52° (NE) 02:03:10 435.215
GONETS M04 01 Mar 01:54:32 01:58:10 12° 315° (NW) 02:01:19
KKS-1 01 Mar 02:05:26 02:09:47 51° 71° (ENE) 02:14:09 437.445
STARS 01 Mar 02:16:33 02:20:45 44° 70° (ENE) 02:25:00 437.465
RS-15 01 Mar 02:17:10 02:27:50 55° 322° (NW) 02:38:45 29.354- 29.394
SO-50 01 Mar 02:24:15 02:28:22 33° 117° (ESE) 02:32:40 436.795
Gurwin Techsat 1B 01 Mar 02:45:16 02:50:06 35° 95° (E) 02:54:58 435.225
DANDE 01 Mar 02:46:26 02:50:53 19° 294° (WNW) 02:54:27 436.750
SWISSCUBE 01 Mar 02:53:13 02:55:43 14° 273° (W) 02:58:00 437.505
BEESAT 3 01 Mar 02:58:28 03:02:38 75° 236° (SW) 03:06:43 437.485
BEESAT 01 Mar 03:02:54 03:04:50 12° 275° (W) 03:06:30 436.000
MOZHAYETS 4 01 Mar 03:05:13 03:07:22 14° 59° (ENE) 03:09:43
AIST 2 01 Mar 03:08:14 03:12:28 53° 48° (NE) 03:16:36 435.215
BEESAT 2 01 Mar 03:21:54 03:25:58 51° 238° (WSW) 03:29:58 435.950
ITAMSAT 1 01 Mar 03:24:18 03:29:35 87° 287° (WNW) 03:34:48 435.822/435.867
M-CUBED/EXP-1 PRIME 01 Mar 03:25:55 03:29:02 40° 65° (ENE) 03:32:19 437.505
AUBIESAT-1 01 Mar 03:29:33 03:32:39 39° 65° (ENE) 03:35:55 437.475
Oscar 19 01 Mar 03:30:56 03:35:22 30° 296° (WNW) 03:39:45 437.125/150
KKS-1 01 Mar 03:43:33 03:46:46 19° 269° (W) 03:49:53 437.445
YUBILEINY 01 Mar 03:47:19 03:56:11 71° 77° (ENE) 04:05:01 435.215
STARS 01 Mar 03:54:02 03:57:29 21° 268° (W) 04:00:50 437.465
PCSat 01 Mar 03:55:38 03:58:08 13° 22° (NNE) 04:00:46 145.827
HORYU 2 01 Mar 03:56:10 04:00:25 42° 99° (E) 04:04:39 437.375
SO-50 01 Mar 04:04:25 04:08:52 41° 317° (NW) 04:13:26 436.795
JAS-2 01 Mar 04:07:19 04:13:25 28° 90° (E) 04:20:00 435.910
Gurwin Techsat 1B 01 Mar 04:25:15 04:30:08 37° 294° (WNW) 04:34:57 435.225
AO-7 01 Mar 04:26:15 04:34:05 45° 98° (E) 04:41:57 29.400- 29.500
RS-15 01 Mar 04:33:40 04:43:17 32° 354° (N) 04:53:11 29.354- 29.394
MOZHAYETS 4 01 Mar 04:39:27 04:44:01 85° 258° (WSW) 04:48:38
AIST 2 01 Mar 04:47:31 04:50:46 21° 246° (WSW) 04:53:53 435.215
PRISM 01 Mar 04:53:47 04:55:51 14° 60° (ENE) 04:58:06 437.425
CUBESAT XI-V 01 Mar 04:58:07 05:00:55 16° 60° (ENE) 05:03:54 437.345
M-CUBED/EXP-1 PRIME 01 Mar 05:02:29 05:04:20 14° 265° (W) 05:06:05 437.505
ITAMSAT 1 01 Mar 05:05:23 05:08:24 15° 304° (WNW) 05:11:13 435.822/435.867
AUBIESAT-1 01 Mar 05:05:58 05:07:52 14° 264° (W) 05:09:43 437.475
HORYU 2 01 Mar 05:33:19 05:36:52 23° 296° (WNW) 05:40:20 437.375
PCSat 01 Mar 05:38:01 05:43:09 40° 46° (NE) 05:48:16 145.827
YUBILEINY 01 Mar 05:45:03 05:52:22 29° 278° (W) 05:59:26 435.215
SO-50 01 Mar 05:48:12 05:50:44 14° 340° (NNW) 05:53:12 436.795
JAS-2 01 Mar 05:51:46 05:58:58 71° 289° (WNW) 06:06:43 435.910
STRAND 1 01 Mar 05:55:38 06:00:19 37° 67° (ENE) 06:05:04 437.568
AO-7 01 Mar 06:19:07 06:27:03 50° 299° (WNW) 06:34:52 29.400- 29.500
PRISM 01 Mar 06:26:44 06:30:52 71° 257° (WSW) 06:35:04 437.425
CUBESAT XI-V 01 Mar 06:33:11 06:37:52 73° 258° (WSW) 06:42:37 437.345
Cubesat XI-IV 01 Mar 06:37:08 06:42:11 40° 97° (E) 06:47:15 437.490
CUTE-I 01 Mar 06:46:36 06:51:47 48° 98° (E) 06:56:57 437.470
RS-15 01 Mar 06:48:54 06:59:21 42° 27° (NNE) 07:10:20 29.354- 29.394
PCSat 01 Mar 07:21:33 07:26:35 39° 246° (WSW) 07:31:33 145.827
SO-50 01 Mar 07:32:52 07:33:24 10° 5° (N) 07:33:57 436.795
STRAND 1 01 Mar 07:34:56 07:39:35 33° 265° (W) 07:44:13 437.568
JAS-2 01 Mar 07:38:23 07:43:05 18° 306° (NW) 07:47:42 435.910
AIST 1 01 Mar 07:44:14 07:48:28 51° 94° (E) 07:52:45
BRITE-PL 01 Mar 07:56:28 07:57:44 11° 83° (E) 07:59:13 437.365/2234.400
GONETS M04 01 Mar 07:59:46 08:06:29 25° 58° (ENE) 08:13:28
AO-7 01 Mar 08:13:42 08:18:02 15° 322° (NW) 08:22:05 29.400- 29.500
Cubesat XI-IV 01 Mar 08:17:26 08:22:14 33° 296° (WNW) 08:26:57 437.490
CUTE-I 01 Mar 08:27:06 08:31:40 28° 297° (WNW) 08:36:08 437.470
COMPASS 1 01 Mar 08:34:59 08:36:16 11° 86° (E) 08:37:46 437.405
DOVE 4 01 Mar 08:51:29 08:54:23 18° 89° (E) 08:57:21 437.250
ANTELSAT 01 Mar 08:53:34 08:55:09 12° 59° (ENE) 08:56:54 437.575/2403.000
SEEDS 01 Mar 08:58:09 09:01:35 24° 93° (E) 09:05:04 437.485
CANX-2 01 Mar 08:58:28 09:02:15 31° 95° (E) 09:06:03 2200.000
RS-15 01 Mar 09:01:45 09:13:11 86° 234° (SW) 09:25:07 29.354- 29.394
O/OREOS (USA 219) 01 Mar 09:10:46 09:13:11 15° 100° (E) 09:15:48 437.305
CINEMA 3 01 Mar 09:12:05 09:14:35 16° 88° (E) 09:17:12 145.822/145.860
SO-50 01 Mar 09:12:20 09:15:51 19° 29° (NNE) 09:19:28 436.795
DUCHIFAT 1 01 Mar 09:15:18 09:16:25 11° 58° (ENE) 09:17:44 145.980
CUTE 1.7 + AOD 2 01 Mar 09:17:09 09:21:13 44° 98° (E) 09:25:18 437.475
AIST 1 01 Mar 09:23:28 09:26:31 18° 294° (WNW) 09:29:28
HO-68 01 Mar 09:24:52 09:31:56 57° 101° (E) 09:39:00 435.675
POLYITAN 1 01 Mar 09:31:52 09:34:30 16° 62° (ENE) 09:37:16 437.675
BRITE-PL 01 Mar 09:32:26 09:37:12 84° 285° (WNW) 09:41:33 437.365/2234.400
POPSAT HIP 1 01 Mar 09:33:12 09:35:52 17° 62° (ENE) 09:38:39 437.405
CUBEBUG 2 01 Mar 09:43:25 09:46:21 19° 91° (E) 09:49:23 437.445
GOMX 1 01 Mar 09:45:39 09:50:11 90° 289° (WNW) 09:54:27 467.674
Oscar 11 01 Mar 09:47:43 09:51:29 29° 94° (E) 09:55:16 145.826/435.025
UNISAT 6 01 Mar 09:48:46 09:52:49 38° 69° (ENE) 09:56:52 437.425
DELFI C3 01 Mar 09:49:46 09:53:03 24° 93° (E) 09:56:25 145.870
ISS 01 Mar 09:53:31 09:55:57 20° 139° (SE) 09:58:26 145.825
GONETS M04 01 Mar 09:55:53 10:04:40 87° 263° (W) 10:13:28
NANOSAT C BR1 01 Mar 09:56:00 09:59:33 26° 66° (ENE) 10:03:11 145.865
AAUSAT CUBESAT 2 01 Mar 10:07:05 10:11:17 88° 284° (WNW) 10:15:29 437.432
COMPASS 1 01 Mar 10:08:23 10:12:35 76° 285° (WNW) 10:16:47 437.405
DX 1 01 Mar 10:09:21 10:12:51 23° 93° (E) 10:16:25 434.975-435.025
TIGRISAT 01 Mar 10:14:19 10:18:42 67° 73° (ENE) 10:23:00 435.000
VELOX 1 01 Mar 10:16:50 10:18:32 12° 86° (E) 10:20:26 145.980
ANTELSAT 01 Mar 10:26:58 10:31:23 89° 255° (WSW) 10:35:45 437.575/2403.000
QB50P1 01 Mar 10:27:40 10:31:51 54° 72° (ENE) 10:36:04 145.935-145.965
DOVE 4 01 Mar 10:28:22 10:32:34 47° 289° (WNW) 10:36:36 437.250
FUNcube-1 01 Mar 10:28:56 10:32:48 37° 97° (E) 10:36:42 145.935
ZACube-1 01 Mar 10:29:34 10:33:29 39° 97° (E) 10:37:23 437.345
QB50P2 01 Mar 10:30:54 10:35:07 59° 73° (ENE) 10:39:21 145.880/145.840
SEEDS 01 Mar 10:33:38 10:37:31 35° 291° (WNW) 10:41:22 437.485
CANX-2 01 Mar 10:34:29 10:38:09 28° 293° (WNW) 10:41:46 2200.000
CUSAT 1 01 Mar 10:38:30 10:38:58 10° 63° (ENE) 10:39:33 437.405
UKube-1 01 Mar 10:40:32 10:44:44 45° 99° (E) 10:48:55 .
UWE-3 01 Mar 10:44:59 10:49:09 70° 102° (ESE) 10:53:17 435.000/436.395/437.385
HUMSAT D 01 Mar 10:45:34 10:49:14 31° 95° (E) 10:52:55 437.325/437.525
BUGSAT 1 01 Mar 10:46:20 10:50:34 64° 73° (ENE) 10:54:49 437.445
DUCHIFAT 1 01 Mar 10:47:21 10:51:38 85° 76° (ENE) 10:55:57 145.980
O/OREOS (USA 219) 01 Mar 10:47:32 10:52:06 70° 297° (WNW) 10:56:42 437.305
CINEMA 3 01 Mar 10:48:07 10:52:15 52° 288° (WNW) 10:56:17 145.822/145.860
SO-50 01 Mar 10:52:18 10:57:16 74° 51° (NE) 11:02:12 436.795
CUTE 1.7 + AOD 2 01 Mar 10:53:41 10:56:55 21° 295° (WNW) 11:00:04 437.475
50 SAT 01 Mar 10:59:14 11:02:44 30° 95° (E) 11:06:16 437.505
POLYITAN 1 01 Mar 11:05:47 11:10:03 61° 259° (W) 11:14:18 437.675
POPSAT HIP 1 01 Mar 11:07:07 11:11:23 60° 259° (W) 11:15:39 437.405
HO-68 01 Mar 11:13:02 11:19:26 35° 301° (WNW) 11:25:44 435.675
BRITE-PL 01 Mar 11:13:07 11:14:55 12° 304° (NW) 11:16:29 437.365/2234.400
RS-15 01 Mar 11:15:22 11:24:19 26° 256° (WSW) 11:33:03 29.354- 29.394
CUBEBUG 2 01 Mar 11:19:22 11:23:21 43° 289° (WNW) 11:27:17 437.445
Oscar 11 01 Mar 11:23:50 11:27:41 31° 292° (WNW) 11:31:29 145.826/435.025
DELFI C3 01 Mar 11:24:39 11:28:23 34° 291° (WNW) 11:32:03 145.870
GOMX 1 01 Mar 11:25:52 11:27:37 12° 303° (WNW) 11:29:09 467.674
UNISAT 6 01 Mar 11:26:09 11:29:46 24° 267° (W) 11:33:16 437.425
ISS 01 Mar 11:28:52 11:32:06 78° 336° (NNW) 11:35:21 145.825
NANOSAT C BR1 01 Mar 11:31:24 11:35:20 34° 264° (W) 11:39:14 145.865
Oscar 19 01 Mar 11:35:12 11:37:39 14° 56° (NE) 11:40:19 437.125/150
DANDE 01 Mar 11:40:38 11:43:29 56° 76° (ENE) 11:46:04 436.750
AISAT 01 Mar 11:40:59 11:45:29 85° 104° (ESE) 11:49:55 437.250
AAUSAT CUBESAT 2 01 Mar 11:45:04 11:46:21 11° 301° (WNW) 11:47:26 437.432
DX 1 01 Mar 11:45:10 11:49:17 39° 291° (WNW) 11:53:19 434.975-435.025
CUBEBUG 1 01 Mar 11:49:59 11:54:18 48° 99° (E) 11:58:33 437.445
VELOX 1 01 Mar 11:51:17 11:55:47 78° 286° (WNW) 12:00:12 145.980
TIGRISAT 01 Mar 11:53:36 11:55:59 14° 272° (W) 11:58:08 435.000
GONETS M04 01 Mar 11:54:22 12:00:24 20° 283° (WNW) 12:06:03
ESTCUBE 1 01 Mar 12:00:55 12:05:29 68° 102° (ESE) 12:10:02 437.505/2401.250
QB50P1 01 Mar 12:05:17 12:08:07 17° 270° (W) 12:10:49 145.935-145.965
FUNcube-1 01 Mar 12:05:44 12:09:01 22° 294° (WNW) 12:12:13 145.935
ZACube-1 01 Mar 12:06:26 12:09:41 22° 295° (WNW) 12:12:51 437.345
QB50P2 01 Mar 12:08:52 12:11:29 15° 271° (W) 12:13:56 145.880/145.840
UKube-1 01 Mar 12:17:18 12:20:39 21° 296° (WNW) 12:23:54 .
CUSAT 1 01 Mar 12:19:51 12:22:02 21° 266° (W) 12:24:05 437.405
HUMSAT D 01 Mar 12:21:29 12:24:58 26° 293° (WNW) 12:28:23 437.325/437.525
UWE-3 01 Mar 12:23:04 12:25:14 14° 299° (WNW) 12:27:15 435.000/436.395/437.385
BUGSAT 1 01 Mar 12:24:10 12:26:33 14° 272° (W) 12:28:46 437.445
DUCHIFAT 1 01 Mar 12:27:11 12:28:11 10° 275° (W) 12:28:56 145.980
SPROUT 01 Mar 12:28:24 12:32:17 32° 96° (E) 12:36:10 437.525
O/OREOS (USA 219) 01 Mar 12:30:26 12:32:30 12° 319° (NW) 12:34:24 437.305
Gurwin Techsat 1B 01 Mar 12:33:13 12:35:28 13° 55° (NE) 12:37:57 435.225
SO-50 01 Mar 12:33:55 12:37:21 19° 248° (WSW) 12:40:39 436.795
50 SAT 01 Mar 12:34:24 12:37:41 25° 293° (WNW) 12:40:55 437.505
TISAT 1 01 Mar 12:37:44 12:41:39 36° 97° (E) 12:45:34 437.305
ISS 01 Mar 13:05:47 13:08:49 36° 356° (N) 13:11:52 145.825
ITAMSAT 1 01 Mar 13:07:00 13:11:27 30° 64° (ENE) 13:16:01 435.822/435.867
SWISSCUBE 01 Mar 13:10:53 13:13:50 16° 88° (E) 13:16:57 437.505
Oscar 19 01 Mar 13:11:10 13:16:19 82° 72° (ENE) 13:21:29 437.125/150
AISAT 01 Mar 13:19:21 13:21:31 13° 301° (WNW) 13:23:30 437.250
BEESAT 01 Mar 13:19:35 13:22:49 18° 90° (E) 13:26:12 436.000
CUBEBUG 1 01 Mar 13:27:02 13:30:23 21° 297° (WNW) 13:33:38 437.445
VELOX 1 01 Mar 13:30:21 13:31:39 11° 303° (WNW) 13:32:46 145.980
ESTCUBE 1 01 Mar 13:38:58 13:41:54 17° 299° (WNW) 13:44:42 437.505/2401.250
AO-7 01 Mar 13:39:04 13:44:57 23° 46° (NE) 13:51:01 29.400- 29.500
ITUPSAT 1 01 Mar 13:45:20 13:49:35 31° 95° (E) 13:53:53 437.325
SPROUT 01 Mar 14:04:37 14:08:19 27° 294° (WNW) 14:11:56 437.525
Gurwin Techsat 1B 01 Mar 14:09:21 14:14:38 73° 73° (ENE) 14:19:59 435.225
TISAT 1 01 Mar 14:13:52 14:17:21 24° 294° (WNW) 14:20:44 437.305
JAS-2 01 Mar 14:26:05 14:29:08 15° 51° (NE) 14:32:34 435.910
ISS 01 Mar 14:42:28 14:45:39 51° 16° (NNE) 14:48:50 145.825
ITAMSAT 1 01 Mar 14:45:52 14:50:50 43° 262° (W) 14:55:49 435.822/435.867
SWISSCUBE 01 Mar 14:47:26 14:52:15 67° 287° (WNW) 14:57:01 437.505
Oscar 19 01 Mar 14:53:31 14:56:24 14° 274° (W) 14:59:04 437.125/150
BEESAT 01 Mar 14:56:23 15:01:08 59° 288° (WNW) 15:05:51 436.000
HORYU 2 01 Mar 14:57:29 15:01:50 59° 72° (ENE) 15:06:13 437.375
YUBILEINY 01 Mar 15:00:26 15:04:54 16° 74° (ENE) 15:09:54 435.215
ITUPSAT 1 01 Mar 15:23:08 15:27:33 36° 293° (WNW) 15:31:55 437.325
AO-7 01 Mar 15:28:17 15:36:36 77° 68° (ENE) 15:44:57 29.400- 29.500
KKS-1 01 Mar 15:29:56 15:34:23 69° 102° (ESE) 15:38:48 437.445
STARS 01 Mar 15:39:30 15:43:51 57° 101° (E) 15:48:09 437.465
Gurwin Techsat 1B 01 Mar 15:51:45 15:55:17 17° 272° (W) 15:58:37 435.225
JAS-2 01 Mar 16:07:38 16:13:08 76° 73° (ENE) 16:19:21 435.910
ISS 01 Mar 16:18:59 16:22:02 37° 215° (SW) 16:25:04 145.825
Cubesat XI-IV 01 Mar 16:25:12 16:28:13 16° 56° (NE) 16:31:26 437.490
SWISSCUBE 01 Mar 16:28:13 16:29:18 11° 305° (NW) 16:30:09 437.505
MOZHAYETS 4 01 Mar 16:32:22 16:35:35 19° 89° (E) 16:38:56
CUTE-I 01 Mar 16:34:02 16:37:30 18° 58° (ENE) 16:41:08 437.470
HORYU 2 01 Mar 16:36:05 16:38:57 16° 271° (W) 16:41:39 437.375
M-CUBED/EXP-1 PRIME 01 Mar 16:38:38 16:42:01 24° 100° (E) 16:45:40 437.505
AUBIESAT-1 01 Mar 16:41:46 16:45:07 23° 100° (E) 16:48:44 437.475
YUBILEINY 01 Mar 16:51:37 17:00:16 73° 95° (E) 17:09:04 435.215
KKS-1 01 Mar 17:07:50 17:10:34 16° 300° (WNW) 17:13:10 437.445
STARS 01 Mar 17:16:56 17:19:57 18° 298° (WNW) 17:22:52 437.465
BEESAT 2 01 Mar 17:21:02 17:23:07 14° 111° (ESE) 17:25:23 435.950
AO-7 01 Mar 17:23:23 17:30:19 27° 269° (W) 17:37:01 29.400- 29.500
AIST 1 01 Mar 17:48:52 17:52:02 19° 67° (ENE) 17:55:18
JAS-2 01 Mar 17:55:28 17:59:15 18° 276° (W) 18:03:03 435.910
Cubesat XI-IV 01 Mar 18:02:15 18:07:37 87° 77° (ENE) 18:13:04 437.490
PRISM 01 Mar 18:07:58 18:09:57 13° 88° (E) 18:12:09 437.425
MOZHAYETS 4 01 Mar 18:08:39 18:13:12 54° 288° (WNW) 18:17:43
CUTE-I 01 Mar 18:11:37 18:17:00 81° 255° (WSW) 18:22:26 437.470
M-CUBED/EXP-1 PRIME 01 Mar 18:13:11 18:17:03 40° 295° (WNW) 18:21:11 437.505
HO-68 01 Mar 18:13:27 18:16:57 15° 46° (NE) 18:20:44 435.675
AUBIESAT-1 01 Mar 18:16:13 18:20:07 41° 295° (WNW) 18:24:16 437.475
CUBESAT XI-V 01 Mar 18:27:27 18:31:11 23° 91° (E) 18:34:59 437.345
BEESAT 3 01 Mar 18:32:30 18:36:36 77° 126° (SE) 18:40:46 437.485
AIST 2 01 Mar 18:47:31 18:51:29 39° 119° (ESE) 18:55:31 435.215
YUBILEINY 01 Mar 18:50:32 18:58:03 30° 298° (WNW) 19:05:28 435.215
PHONESAT 2.4 01 Mar 18:53:22 18:53:55 10° 153° (SSE) 18:54:34 2401.200-2431.200
VERMONT LUNAR 01 Mar 18:56:13 18:58:25 16° 160° (SSE) 19:00:38 437.305
BEESAT 2 01 Mar 18:56:40 19:00:48 74° 309° (NW) 19:05:00 435.950
BRITE-PL 01 Mar 19:08:08 19:12:33 25° 64° (ENE) 19:16:56 437.365/2234.400
O/OREOS (USA 219) 01 Mar 19:15:17 19:19:47 48° 59° (ENE) 19:24:14 437.305
GOMX 1 01 Mar 19:19:35 19:23:28 21° 63° (ENE) 19:27:20 467.674
AIST 1 01 Mar 19:25:46 19:30:02 47° 266° (W) 19:34:14
AAUSAT CUBESAT 2 01 Mar 19:28:50 19:30:04 11° 60° (ENE) 19:31:29 437.432
COMPASS 1 01 Mar 19:29:45 19:31:39 13° 61° (ENE) 19:33:43 437.405
STRAND 1 01 Mar 19:41:33 19:46:43 67° 103° (ESE) 19:51:50 437.568
PRISM 01 Mar 19:41:46 19:45:59 66° 287° (WNW) 19:50:10 437.425
Cubesat XI-IV 01 Mar 19:45:36 19:48:34 14° 274° (W) 19:51:18 437.490
SEEDS 01 Mar 19:53:37 19:57:03 26° 67° (ENE) 20:00:35 437.485
CANX-2 01 Mar 19:54:37 19:58:23 33° 69° (ENE) 20:02:13 2200.000
CUTE-I 01 Mar 19:55:58 19:58:06 12° 276° (W) 19:59:53 437.470
HO-68 01 Mar 19:56:25 20:03:21 58° 66° (ENE) 20:10:22 435.675
DOVE 4 01 Mar 19:59:14 20:03:41 32° 68° (ENE) 20:08:01 437.250
CUBESAT XI-V 01 Mar 20:04:21 20:08:53 45° 290° (WNW) 20:13:21 437.345
BEESAT 3 01 Mar 20:12:07 20:15:13 20° 326° (NW) 20:18:16 437.485
UWE-3 01 Mar 20:12:17 20:13:29 11° 59° (ENE) 20:14:52 435.000/436.395/437.385
CUTE 1.7 + AOD 2 01 Mar 20:13:06 20:17:07 47° 72° (ENE) 20:21:12 437.475
CINEMA 3 01 Mar 20:16:22 20:20:11 25° 66° (ENE) 20:23:56 145.822/145.860
